Time,TemperatureF,DewpointF,PressureIn,WindDirection,WindDirectionDegrees,WindSpeedMPH,WindSpeedGustMPH,Humidity,HourlyPrecipIn,Conditions,Clouds,dailyrainin,SoftwareType,DateUTC
2013-02-12 00:12:00,31.3,24.0,30.06,WNW,295,4.0,17.0,75,0.00,,,0.00,weatherlink.com 1.10,2013-02-12 06:12:00,
2013-02-12 00:27:00,31.0,23.0,30.06,NW,306,12.0,18.0,73,0.00,,,0.00,weatherlink.com 1.10,2013-02-12 06:27:00,
2013-02-12 00:42:00,30.9,23.0,30.05,NW,311,4.0,17.0,73,0.00,,,0.00,weatherlink.com 1.10,2013-02-12 06:42:00,
2013-02-12 00:57:00,30.6,24.0,30.06,WNW,291,8.0,12.0,75,0.00,,,0.00,weatherlink.com 1.10,2013-02-12 06:57:00,
2013-02-12 01:14:00,30.4,23.0,30.06,WSW,245,13.0,14.0,75,0.00,,,0.00,weatherlink.com 1.10,2013-02-12 07:14:00,
2013-02-12 01:27:00,30.0,23.0,30.06,North,11,3.0,8.0,76,0.00,,,0.00,weatherlink.com 1.10,2013-02-12 07:27:00,
2013-02-12 01:42:00,29.9,23.0,30.07,West,271,6.0,7.0,76,0.00,,,0.00,weatherlink.com 1.10,2013-02-12 07:42:00,
2013-02-12 01:58:00,30.0,23.0,30.08,NW,306,3.0,10.0,76,0.00,,,0.00,weatherlink.com 1.10,2013-02-12 07:58:00,
2013-02-12 02:13:00,30.2,24.0,30.08,WNW,283,3.0,11.0,76,0.00,,,0.00,weatherlink.com 1.10,2013-02-12 08:13:00,
2013-02-12 02:27:00,30.2,24.0,30.08,WNW,287,1.0,12.0,76,0.00,,,0.00,weatherlink.com 1.10,2013-02-12 08:27:00,
2013-02-12 02:42:00,29.9,23.0,30.09,WSW,237,3.0,13.0,75,0.00,,,0.00,weatherlink.com 1.10,2013-02-12 08:42:00,
2013-02-12 02:58:00,29.8,23.0,30.09,West,273,3.0,11.0,75,0.00,,,0.00,weatherlink.com 1.10,2013-02-12 08:58:00,
2013-02-12 03:12:00,29.8,23.0,30.09,West,272,2.0,8.0,76,0.00,,,0.00,weatherlink.com 1.10,2013-02-12 09:12:00,
2013-02-12 03:28:00,29.8,23.0,30.09,WNW,284,9.0,13.0,76,0.00,,,0.00,weatherlink.com 1.10,2013-02-12 09:28:00,
2013-02-12 03:42:00,29.8,23.0,30.09,West,275,1.0,10.0,77,0.00,,,0.00,weatherlink.com 1.10,2013-02-12 09:42:00,
2013-02-12 03:58:00,29.2,23.0,30.09,West,278,4.0,12.0,76,0.00,,,0.00,weatherlink.com 1.10,2013-02-12 09:58:00,
2013-02-12 04:13:00,28.5,22.0,30.09,WNW,291,4.0,11.0,77,0.00,,,0.00,weatherlink.com 1.10,2013-02-12 10:13:00,
2013-02-12 04:28:00,28.1,22.0,30.09,WNW,284,0.0,7.0,79,0.00,,,0.00,weatherlink.com 1.10,2013-02-12 10:28:00,
2013-02-12 04:43:00,27.7,23.0,30.10,North,355,2.0,6.0,81,0.00,,,0.00,weatherlink.com 1.10,2013-02-12 10:43:00,
2013-02-12 04:58:00,28.2,23.0,30.10,WSW,238,0.0,6.0,80,0.00,,,0.00,weatherlink.com 1.10,2013-02-12 10:58:00,
2013-02-12 05:13:00,27.8,22.0,30.10,West,281,4.0,7.0,79,0.00,,,0.00,weatherlink.com 1.10,2013-02-12 11:13:00,
2013-02-12 05:28:00,27.2,22.0,30.11,NW,319,1.0,5.0,80,0.00,,,0.00,weatherlink.com 1.10,2013-02-12 11:28:00,
2013-02-12 05:43:00,26.8,22.0,30.10,WNW,283,1.0,6.0,81,0.00,,,0.00,weatherlink.com 1.10,2013-02-12 11:43:00,
2013-02-12 05:58:00,26.9,22.0,30.10,NW,313,2.0,5.0,82,0.00,,,0.00,weatherlink.com 1.10,2013-02-12 11:58:00,
2013-02-12 06:13:00,27.0,22.0,30.11,NNW,330,1.0,4.0,82,0.00,,,0.00,weatherlink.com 1.10,2013-02-12 12:13:00,
2013-02-12 06:28:00,27.1,22.0,30.10,West,263,2.0,5.0,81,0.00,,,0.00,weatherlink.com 1.10,2013-02-12 12:28:00,
2013-02-12 06:43:00,27.2,22.0,30.11,WNW,292,3.0,7.0,80,0.00,,,0.00,weatherlink.com 1.10,2013-02-12 12:43:00,
2013-02-12 06:58:00,27.2,22.0,30.10,NW,323,3.0,8.0,79,0.00,,,0.00,weatherlink.com 1.10,2013-02-12 12:58:00,
2013-02-12 07:13:00,27.2,22.0,30.10,WNW,302,1.0,4.0,80,0.00,,,0.00,weatherlink.com 1.10,2013-02-12 13:13:00,
2013-02-12 07:28:00,27.6,22.0,30.12,West,280,1.0,8.0,80,0.00,,,0.00,weatherlink.com 1.10,2013-02-12 13:28:00,
2013-02-12 07:43:00,28.0,22.0,30.12,West,279,3.0,9.0,79,0.00,,,0.00,weatherlink.com 1.10,2013-02-12 13:43:00,
2013-02-12 07:58:00,28.3,23.0,30.11,West,261,4.0,9.0,79,0.00,,,0.00,weatherlink.com 1.10,2013-02-12 13:58:00,
2013-02-12 08:13:00,28.7,23.0,30.11,WSW,250,4.0,8.0,80,0.00,,,0.00,weatherlink.com 1.10,2013-02-12 14:13:00,
2013-02-12 08:43:00,29.1,24.0,30.11,West,275,3.0,8.0,80,0.00,,,0.00,weatherlink.com 1.10,2013-02-12 14:43:00,
2013-02-12 08:58:00,29.2,24.0,30.12,West,261,12.0,12.0,80,0.00,,,0.00,weatherlink.com 1.10,2013-02-12 14:58:00,
2013-02-12 09:13:00,29.4,24.0,30.11,WNW,286,7.0,9.0,79,0.00,,,0.00,weatherlink.com 1.10,2013-02-12 15:13:00,
2013-02-12 09:28:00,29.2,24.0,30.12,WSW,253,8.0,12.0,80,0.00,,,0.00,weatherlink.com 1.10,2013-02-12 15:28:00,
2013-02-12 09:43:00,29.4,24.0,30.12,WNW,288,3.0,10.0,79,0.00,,,0.00,weatherlink.com 1.10,2013-02-12 15:43:00,
2013-02-12 09:58:00,29.6,24.0,30.12,WNW,302,2.0,11.0,78,0.00,,,0.00,weatherlink.com 1.10,2013-02-12 15:58:00,
2013-02-12 10:14:00,30.0,24.0,30.12,WSW,256,6.0,11.0,77,0.00,,,0.00,weatherlink.com 1.10,2013-02-12 16:14:00,
2013-02-12 10:28:00,30.2,24.0,30.13,West,279,4.0,12.0,79,0.00,,,0.00,weatherlink.com 1.10,2013-02-12 16:28:00,
2013-02-12 10:43:00,30.4,25.0,30.12,West,280,7.0,10.0,79,0.00,,,0.00,weatherlink.com 1.10,2013-02-12 16:43:00,
2013-02-12 10:58:00,30.3,24.0,30.10,West,267,4.0,17.0,78,0.00,,,0.00,weatherlink.com 1.10,2013-02-12 16:58:00,
2013-02-12 11:13:00,30.3,24.0,30.09,WSW,248,3.0,10.0,78,0.00,,,0.00,weatherlink.com 1.10,2013-02-12 17:13:00,
2013-02-12 11:29:00,30.8,24.0,30.07,WNW,282,4.0,11.0,75,0.00,,,0.00,weatherlink.com 1.10,2013-02-12 17:29:00,
2013-02-12 11:44:00,31.4,25.0,30.07,West,280,7.0,11.0,77,0.00,,,0.00,weatherlink.com 1.10,2013-02-12 17:44:00,
2013-02-12 11:58:00,31.1,24.0,30.06,West,269,6.0,11.0,76,0.00,,,0.00,weatherlink.com 1.10,2013-02-12 17:58:00,
2013-02-12 12:13:00,30.8,25.0,30.06,West,264,5.0,13.0,78,0.00,,,0.00,weatherlink.com 1.10,2013-02-12 18:13:00,
2013-02-12 12:29:00,30.5,24.0,30.06,WSW,249,7.0,14.0,78,0.00,,,0.00,weatherlink.com 1.10,2013-02-12 18:29:00,
2013-02-12 12:58:00,30.3,25.0,30.05,WNW,303,4.0,14.0,79,0.00,,,0.00,weatherlink.com 1.10,2013-02-12 18:58:00,
2013-02-12 13:13:00,30.3,25.0,30.05,WNW,294,6.0,12.0,79,0.00,,,0.00,weatherlink.com 1.10,2013-02-12 19:13:00,
2013-02-12 13:28:00,30.3,25.0,30.05,WSW,255,9.0,12.0,80,0.00,,,0.00,weatherlink.com 1.10,2013-02-12 19:28:00,
2013-02-12 13:43:00,30.3,25.0,30.06,West,270,6.0,13.0,79,0.00,,,0.00,weatherlink.com 1.10,2013-02-12 19:43:00,
2013-02-12 13:59:00,30.6,25.0,30.06,NW,313,2.0,12.0,78,0.00,,,0.00,weatherlink.com 1.10,2013-02-12 19:59:00,
2013-02-12 14:13:00,30.6,24.0,30.07,NNW,337,4.0,14.0,77,0.00,,,0.00,weatherlink.com 1.10,2013-02-12 20:13:00,
2013-02-12 14:29:00,30.7,25.0,30.06,WSW,254,4.0,12.0,79,0.00,,,0.00,weatherlink.com 1.10,2013-02-12 20:29:00,
2013-02-12 14:58:00,31.1,25.0,30.05,WSW,244,11.0,13.0,78,0.00,,,0.00,weatherlink.com 1.10,2013-02-12 20:58:00,
2013-02-12 15:13:00,31.1,25.0,30.05,SSW,196,3.0,11.0,77,0.00,,,0.00,weatherlink.com 1.10,2013-02-12 21:13:00,
2013-02-12 15:29:00,31.1,25.0,30.05,WNW,292,6.0,11.0,79,0.00,,,0.00,weatherlink.com 1.10,2013-02-12 21:29:00,
2013-02-12 15:44:00,31.2,25.0,30.04,West,266,4.0,11.0,79,0.00,,,0.00,weatherlink.com 1.10,2013-02-12 21:44:00,
2013-02-12 15:59:00,31.5,25.0,30.04,WSW,255,7.0,8.0,78,0.00,,,0.00,weatherlink.com 1.10,2013-02-12 21:59:00,
2013-02-12 16:14:00,31.6,26.0,30.03,West,273,3.0,10.0,79,0.00,,,0.00,weatherlink.com 1.10,2013-02-12 22:14:00,
2013-02-12 16:29:00,31.5,25.0,30.02,WNW,282,3.0,10.0,76,0.00,,,0.00,weatherlink.com 1.10,2013-02-12 22:29:00,
2013-02-12 16:44:00,31.5,25.0,30.02,West,265,5.0,10.0,77,0.00,,,0.00,weatherlink.com 1.10,2013-02-12 22:44:00,
2013-02-12 16:59:00,31.4,25.0,30.02,WNW,296,5.0,9.0,77,0.00,,,0.00,weatherlink.com 1.10,2013-02-12 22:59:00,
2013-02-12 17:14:00,31.1,25.0,30.02,WSW,255,1.0,8.0,77,0.00,,,0.00,weatherlink.com 1.10,2013-02-12 23:14:00,
2013-02-12 17:29:00,30.8,24.0,30.01,WNW,286,4.0,7.0,76,0.00,,,0.00,weatherlink.com 1.10,2013-02-12 23:29:00,
2013-02-12 17:44:00,30.4,24.0,30.01,West,260,2.0,6.0,78,0.00,,,0.00,weatherlink.com 1.10,2013-02-12 23:44:00,
2013-02-12 17:59:00,29.9,24.0,30.01,West,267,2.0,5.0,78,0.00,,,0.00,weatherlink.com 1.10,2013-02-12 23:59:00,
2013-02-12 18:14:00,29.4,24.0,30.01,West,281,0.0,4.0,79,0.00,,,0.00,weatherlink.com 1.10,2013-02-13 00:14:00,
2013-02-12 18:29:00,28.6,23.0,30.01,West,281,1.0,2.0,80,0.00,,,0.00,weatherlink.com 1.10,2013-02-13 00:29:00,
2013-02-12 18:44:00,27.9,23.0,30.00,West,281,1.0,1.0,81,0.00,,,0.00,weatherlink.com 1.10,2013-02-13 00:44:00,
2013-02-12 18:59:00,27.2,22.0,30.00,West,281,0.0,0.0,82,0.00,,,0.00,weatherlink.com 1.10,2013-02-13 00:59:00,
2013-02-12 19:14:00,26.7,23.0,29.99,West,281,0.0,0.0,84,0.00,,,0.00,weatherlink.com 1.10,2013-02-13 01:14:00,
2013-02-12 19:29:00,26.1,22.0,29.99,West,281,0.0,0.0,85,0.00,,,0.00,weatherlink.com 1.10,2013-02-13 01:29:00,
2013-02-12 19:44:00,25.9,23.0,29.99,West,281,0.0,0.0,87,0.00,,,0.00,weatherlink.com 1.10,2013-02-13 01:44:00,
2013-02-12 19:59:00,25.7,23.0,29.99,West,281,0.0,0.0,88,0.00,,,0.00,weatherlink.com 1.10,2013-02-13 01:59:00,
2013-02-12 20:14:00,25.7,23.0,29.98,West,281,0.0,1.0,88,0.00,,,0.00,weatherlink.com 1.10,2013-02-13 02:14:00,
2013-02-12 20:29:00,25.3,22.0,29.98,West,281,0.0,1.0,88,0.00,,,0.00,weatherlink.com 1.10,2013-02-13 02:29:00,
2013-02-12 20:44:00,25.0,22.0,29.97,West,281,0.0,0.0,88,0.00,,,0.00,weatherlink.com 1.10,2013-02-13 02:44:00,
2013-02-12 20:59:00,25.0,22.0,29.97,West,281,0.0,0.0,88,0.00,,,0.00,weatherlink.com 1.10,2013-02-13 02:59:00,
2013-02-12 21:14:00,24.5,22.0,29.97,West,281,0.0,0.0,88,0.00,,,0.00,weatherlink.com 1.10,2013-02-13 03:14:00,
2013-02-12 21:29:00,24.2,21.0,29.97,West,281,0.0,0.0,88,0.00,,,0.00,weatherlink.com 1.10,2013-02-13 03:29:00,
2013-02-12 21:44:00,24.4,22.0,29.97,West,281,0.0,0.0,90,0.00,,,0.00,weatherlink.com 1.10,2013-02-13 03:44:00,
2013-02-12 21:59:00,24.5,22.0,29.97,West,281,0.0,0.0,90,0.00,,,0.00,weatherlink.com 1.10,2013-02-13 03:59:00,
2013-02-12 22:14:00,24.3,22.0,29.98,West,281,0.0,0.0,90,0.00,,,0.00,weatherlink.com 1.10,2013-02-13 04:14:00,
2013-02-12 22:29:00,24.1,22.0,29.97,West,281,0.0,0.0,90,0.00,,,0.00,weatherlink.com 1.10,2013-02-13 04:29:00,
2013-02-12 22:44:00,24.0,22.0,29.96,West,281,0.0,0.0,90,0.00,,,0.00,weatherlink.com 1.10,2013-02-13 04:44:00,
2013-02-12 22:59:00,24.0,22.0,29.96,West,281,0.0,0.0,90,0.00,,,0.00,weatherlink.com 1.10,2013-02-13 04:59:00,
2013-02-12 23:15:00,24.0,22.0,29.96,West,281,0.0,0.0,91,0.00,,,0.00,weatherlink.com 1.10,2013-02-13 05:15:00,
2013-02-12 23:29:00,24.0,22.0,29.96,West,281,0.0,0.0,90,0.00,,,0.00,weatherlink.com 1.10,2013-02-13 05:29:00,
2013-02-12 23:44:00,23.5,21.0,29.96,West,281,0.0,0.0,90,0.00,,,0.00,weatherlink.com 1.10,2013-02-13 05:44:00,
2013-02-12 23:59:00,22.8,20.0,29.95,West,281,0.0,0.0,90,0.00,,,0.00,weatherlink.com 1.10,2013-02-13 05:59:00,